Flag for Canada Weather past 2 weeks in Colchester County, Nova Scotia, Canada

Now
77 °F

Passing clouds.


Feels Like: 79 °F
Forecast: 56 / 80 °F
Wind: 5 mph from West

Location: Halifax International Airport

Current Time: Jul 22, 2014 at 4:51:40 PM

Latest Report: Jul 22, 2014 at 1:00 PM


Visibility: 15 mi

Pressure: 30.08 "Hg

Humidity: 47%

Dew point: 55 °F

Location of Colchester CountyLocation

Historic Weather in Colchester County — Graph

°F

Colchester County temperature yesterday

Maximum temperature yesterday: 73 °F (at 4:00 PM)
Minimum temperature yesterday: 59 °F (at 2:00 AM)
Average temperature yesterday: 65 °F

Past Weeks' High & Low Weather Summary

 TemperatureHumidityPressure
High82 °F (Jul 12, 3:00 PM)100% (Jul 8, 9:00 AM)30.28 "Hg (Jul 8, 9:00 AM)
Low57 °F (Jul 13, 6:00 AM)32% (Jul 12, 4:00 PM)29.78 "Hg (Jul 8, 6:00 AM)
Average67 °F79%30.05 "Hg
* Reported Jul 7 1:00 PM — Jul 22 1:00 PM, Colchester County, Weather by CustomWeather, © 2014

Note: Actual official high and low records may vary slightly from our data, if they occured in-between our weather recording intervals... More about our weather records

Advertising

Colchester County weather history for previous 24 hours

 ConditionsComfort  
Time TempWeatherWind HumidityBarometerVisibility
1:00 PM
Jul 22
77 °FPassing clouds.5 mph47%30.08 "Hg15 mi
12:00 PM75 °FPassing clouds.8 mph57%30.11 "Hg15 mi
11:00 AM73 °FPassing clouds.5 mph65%30.11 "Hg15 mi
10:00 AM70 °FSunny.5 mph64%30.10 "Hg15 mi
9:00 AM64 °FPassing clouds.2 mph83%30.12 "Hg15 mi
8:00 AM59 °FCool.3 mph100%30.12 "Hg1 mi
7:00 AM59 °FFog.2 mph100%30.12 "Hg1 mi
6:00 AM57 °FFog.7 mph100%30.13 "Hg0 mi
5:00 AM59 °FFog.5 mph94%30.12 "Hg1 mi
4:00 AM59 °FFog.5 mph100%30.12 "Hg1 mi
3:45 AM59 °FFog.6 mph100%30.12 "Hg2 mi
3:00 AM59 °FFog.3 mph100%30.13 "Hg1 mi
2:50 AM59 °FFog.6 mph100%30.13 "Hg1 mi
2:00 AM59 °FFog.6 mph100%30.14 "Hg4 mi
1:00 AM59 °FFog.6 mph100%30.15 "Hg5 mi
12:00 AM61 °FFog.5 mph100%30.15 "Hg1 mi
11:00 PM
Jul 21
61 °FFog.7 mph100%30.16 "Hg1 mi
10:00 PM63 °FFog.7 mph94%30.16 "Hg1 mi
9:51 PM63 °FFog.8 mph94%30.15 "Hg1 mi
9:00 PM63 °FPassing clouds.7 mph88%30.14 "Hg15 mi
8:00 PM68 °FScattered clouds.6 mph78%30.15 "Hg15 mi
7:00 PM70 °FPartly sunny.7 mph69%30.15 "Hg15 mi
6:00 PM72 °FPartly sunny.7 mph61%30.15 "Hg15 mi
5:00 PM72 °FPartly sunny.8 mph57%30.17 "Hg15 mi
4:00 PM73 °FPartly sunny.7 mph61%30.17 "Hg15 mi
Weather by CustomWeather, © 2014

See weather overviewHow to use our weather pages